Date String (YYYY-MM-DD hh:mm:ss) UTC,Instrument flags,Ambient pressure (hPa),Sample flow (lpm),Bypass flow (lpm),Sample temperature (°C),Ambient temperature (°C),ASC tube jacket temperature (°C),LED temperature (°C),Box temperature (°C),Sample RH (%),Span deviation,Mass concentration (μg/m³),Mass concentration (μg/m³),Mass concentration (μg/m³)
DateTimeUTC,F1_M11,P_M11,Q1_M11,Q2_M11,T1_M11,T2_M11,T3_M11,T4_M11,T5_M11,U1_M11,ZSPAN_M11,X0_M11,X2_M11,X1_M11
2022-12-17 00:00:00,,0823.4,4.98,0.00,20.9,20.6,00.0,29.7,22.6,04.0,0000.0,0003.47,0002.14,0001.73
2022-12-17 00:01:00,,0823.4,5.03,0.00,20.9,19.9,00.0,29.7,22.4,04.1,0000.0,0003.82,0002.16,0001.75
2022-12-17 00:02:00,,0823.3,4.97,0.00,20.8,19.4,00.0,29.7,22.3,04.1,0000.0,0004.62,0002.14,0001.75
2022-12-17 00:03:00,,0823.3,5.02,0.00,20.7,19.1,00.0,29.7,22.2,04.1,0000.0,0004.62,0002.12,0001.74
2022-12-17 00:04:00,,0823.3,4.99,0.00,20.7,18.9,00.0,29.7,22.1,04.1,0000.0,0004.62,0002.12,0001.75
2022-12-17 00:05:00,,0823.3,5.01,0.00,20.6,18.6,00.0,29.7,22.0,04.1,0000.0,0004.53,0002.06,0001.73
2022-12-17 00:06:00,,0823.2,4.98,0.00,20.6,18.7,00.0,29.6,22.0,04.1,0000.0,0004.50,0002.09,0001.73
2022-12-17 00:07:00,,0823.2,4.98,0.00,20.6,20.0,00.0,29.6,22.3,04.1,0000.0,0004.40,0002.11,0001.73
2022-12-17 00:08:00,,0823.3,4.98,0.00,20.8,21.1,00.0,29.6,22.6,04.1,0000.0,0004.42,0002.13,0001.73
2022-12-17 00:09:00,,0823.3,4.98,0.00,20.9,21.4,00.0,29.6,22.8,04.1,0000.0,0004.46,0002.16,0001.75
2022-12-17 00:10:00,,0823.3,5.04,0.00,20.9,20.6,00.0,29.7,22.6,04.0,0000.0,0004.55,0002.19,0001.74
2022-12-17 00:11:00,,0823.3,4.98,0.00,20.8,19.9,00.0,29.7,22.4,04.0,0000.0,0004.68,0002.22,0001.75
2022-12-17 00:12:00,,0823.3,4.96,0.00,20.7,19.3,00.0,29.7,22.2,04.0,0000.0,0004.12,0002.20,0001.74
2022-12-17 00:13:00,,0823.2,5.05,0.00,20.7,18.8,00.0,29.7,22.1,04.1,0000.0,0003.70,0002.22,0001.74
2022-12-17 00:14:00,,0823.1,4.96,0.00,20.6,18.5,00.0,29.7,21.9,04.1,0000.0,0003.96,0002.22,0001.74
2022-12-17 00:15:00,,0823.2,5.05,0.00,20.5,18.5,00.0,29.6,21.9,04.1,0000.0,0003.88,0002.20,0001.74
2022-12-17 00:16:00,,0823.2,4.99,0.00,20.6,19.8,00.0,29.6,22.2,04.1,0000.0,0004.08,0002.22,0001.73
2022-12-17 00:17:00,,0823.2,5.00,0.00,20.7,21.0,00.0,29.5,22.6,04.1,0000.0,0004.29,0002.22,0001.74
2022-12-17 00:18:00,,0823.1,5.00,0.00,20.9,21.3,00.0,29.6,22.7,04.0,0000.0,0004.23,0002.19,0001.73
2022-12-17 00:19:00,,0823.1,4.98,0.00,20.8,20.5,00.0,29.6,22.6,04.0,0000.0,0004.36,0002.20,0001.73
2022-12-17 00:20:00,,0823.1,5.04,0.00,20.8,19.8,00.0,29.7,22.3,04.0,0000.0,0004.43,0002.21,0001.70
2022-12-17 00:21:00,,0823.0,4.96,0.00,20.7,19.2,00.0,29.7,22.1,04.1,0000.0,0004.38,0002.17,0001.68
2022-12-17 00:22:00,,0822.9,5.03,0.00,20.6,18.7,00.0,29.7,22.0,04.1,0000.0,0004.41,0002.12,0001.65
2022-12-17 00:23:00,,0822.9,4.96,0.00,20.5,18.3,00.0,29.6,21.9,04.1,0000.0,0004.96,0002.04,0001.62
2022-12-17 00:24:00,,0822.9,5.04,0.00,20.4,18.3,00.0,29.6,21.8,04.1,0000.0,0004.71,0002.00,0001.59
2022-12-17 00:25:00,,0823.1,4.98,0.00,20.5,19.6,00.0,29.5,22.1,04.1,0000.0,0004.32,0001.98,0001.55
2022-12-17 00:26:00,,0822.9,5.00,0.00,20.6,20.9,00.0,29.5,22.5,04.1,0000.0,0004.33,0001.97,0001.52
2022-12-17 00:27:00,,0823.0,5.01,0.00,20.8,21.4,00.0,29.5,22.7,04.1,0000.0,0004.25,0001.93,0001.49
2022-12-17 00:28:00,,0822.9,4.99,0.00,20.8,20.7,00.0,29.6,22.5,04.1,0000.0,0003.89,0001.89,0001.48
2022-12-17 00:29:00,,0822.9,5.03,0.00,20.7,20.0,00.0,29.6,22.3,04.1,0000.0,0003.96,0001.86,0001.45
2022-12-17 00:30:00,,0822.9,4.97,0.00,20.7,19.4,00.0,29.6,22.2,04.1,0000.0,0003.87,0001.81,0001.42
2022-12-17 00:31:00,,0822.8,5.03,0.00,20.6,19.0,00.0,29.6,22.0,04.1,0000.0,0003.61,0001.74,0001.41
2022-12-17 00:32:00,,0822.8,4.96,0.00,20.5,18.6,00.0,29.6,21.9,04.1,0000.0,0003.58,0001.72,0001.41
2022-12-17 00:33:00,,0822.8,5.04,0.00,20.5,18.4,00.0,29.6,21.8,04.1,0000.0,0003.43,0001.69,0001.40
2022-12-17 00:34:00,,0822.7,4.98,0.00,20.5,19.7,00.0,29.5,22.1,04.1,0000.0,0002.70,0001.69,0001.41
2022-12-17 00:35:00,,0822.7,5.00,0.00,20.7,20.9,00.0,29.5,22.5,04.0,0000.0,0002.57,0001.69,0001.41
2022-12-17 00:36:00,,0822.7,5.01,0.00,20.8,21.6,00.0,29.5,22.8,04.0,0000.0,0002.55,0001.67,0001.42
2022-12-17 00:37:00,,0822.7,4.99,0.00,20.8,20.9,00.0,29.6,22.7,04.0,0000.0,0002.56,0001.65,0001.44
2022-12-17 00:38:00,,0822.7,4.98,0.00,20.8,20.3,00.0,29.6,22.5,04.0,0000.0,0002.54,0001.64,0001.44
2022-12-17 00:39:00,,0822.6,5.03,0.00,20.8,19.8,00.0,29.6,22.4,04.0,0000.0,0002.51,0001.61,0001.43
2022-12-17 00:40:00,,0822.7,4.97,0.00,20.7,19.5,00.0,29.6,22.3,04.0,0000.0,0002.43,0001.62,0001.42
2022-12-17 00:41:00,,0822.7,5.04,0.00,20.7,19.2,00.0,29.6,22.2,04.0,0000.0,0002.41,0001.65,0001.44
2022-12-17 00:42:00,,0822.7,4.97,0.00,20.7,19.1,00.0,29.6,22.2,04.0,0000.0,0002.41,0001.66,0001.44
2022-12-17 00:43:00,,0822.7,5.04,0.00,20.6,18.9,00.0,29.6,22.2,04.0,0000.0,0002.41,0001.67,0001.45
2022-12-17 00:44:00,,0822.7,4.96,0.00,20.6,19.2,00.0,29.6,22.2,04.0,0000.0,0002.42,0001.68,0001.46
2022-12-17 00:45:00,,0822.6,5.04,0.00,20.7,20.5,00.0,29.5,22.5,04.0,0000.0,0002.40,0001.68,0001.47
2022-12-17 00:46:00,,0822.7,4.95,0.00,20.9,21.6,00.0,29.5,22.8,03.9,0000.0,0002.44,0001.71,0001.49
2022-12-17 00:47:00,,0822.6,5.01,0.00,21.0,21.6,00.0,29.6,22.9,03.9,0000.0,0002.42,0001.72,0001.49
2022-12-17 00:48:00,,0822.6,4.99,0.00,21.0,20.7,00.0,29.7,22.7,03.9,0000.0,0002.57,0001.76,0001.49
2022-12-17 00:49:00,,0822.6,5.02,0.00,20.9,20.0,00.0,29.7,22.5,04.0,0000.0,0002.60,0001.79,0001.49
2022-12-17 00:50:00,,0822.7,4.96,0.00,20.8,19.4,00.0,29.7,22.3,04.0,0000.0,0002.67,0001.81,0001.50
2022-12-17 00:51:00,,0822.6,5.04,0.00,20.7,18.9,00.0,29.7,22.1,04.0,0000.0,0003.61,0001.78,0001.51
2022-12-17 00:52:00,,0822.6,4.95,0.00,20.6,18.5,00.0,29.7,22.0,04.0,0000.0,0003.59,0001.75,0001.51
2022-12-17 00:53:00,,0822.6,5.05,0.00,20.6,18.6,00.0,29.6,22.0,04.0,0000.0,0003.68,0001.78,0001.51
2022-12-17 00:54:00,,0822.6,4.97,0.00,20.7,20.0,00.0,29.6,22.3,04.0,0000.0,0003.77,0001.81,0001.51
2022-12-17 00:55:00,,0822.6,5.00,0.00,20.8,21.2,00.0,29.6,22.6,03.9,0000.0,0003.81,0001.82,0001.50
2022-12-17 00:56:00,,0822.6,4.99,0.00,20.9,21.2,00.0,29.6,22.7,03.9,0000.0,0003.85,0001.84,0001.50
2022-12-17 00:57:00,,0822.6,5.04,0.00,20.9,20.4,00.0,29.7,22.5,03.8,0000.0,0003.87,0001.83,0001.50
2022-12-17 00:58:00,,0822.6,4.97,0.00,20.8,19.7,00.0,29.7,22.3,03.9,0000.0,0003.91,0001.84,0001.49
2022-12-17 00:59:00,,0822.6,5.03,0.00,20.7,19.1,00.0,29.7,22.1,03.9,0000.0,0003.78,0001.81,0001.49
